Location: Condor
(52.3263°N, 114.5541°W)
Time: 01:39:59
(UTC+00:00)

SO-50 - Pass Details

Date: 10 December 2023
Orbit: 608 x 661 km, 64.6° (Epoch: 28 February)

Event Time Altitude Azimuth Distance (km) Brightness Sun altitude
Exits shadow 14:54:09 - 318° (NW) 2,345 ? -6.2°
Reaches altitude 10° 14:55:10 10° 326° (NW) 2,039 ? -6.1°
Maximum altitude 14:58:38 21° 14° (NNE) 1,453 ? -5.6°
Drops below altitude 10° 15:02:03 10° 63° (ENE) 2,009 ? -5.2°
Sets 15:04:50 0° 81° (E) 2,904 ? -4.8°
